Location: Napier
(39.4830°S, 176.9170°E)
Time: 13:19:09
(UTC+12:00)

Cosmos 1328 Rocket - Pass Details

Date: 15 August 2020
Orbit: 602 x 626 km, 82.5° (Epoch: 23 September)

Event Time Altitude Azimuth Distance (km) Brightness Sun altitude
Rises 19:56:15 0° 340° (NNW) 2,902 7.2 -27.9°
Reaches altitude 10° 19:58:32 10° 334° (NNW) 2,002 6.4 -28.3°
Enters shadow 20:02:26 47° 278° (W) 844 4.5 -29.1°
